Weather History for KOTM - July, 2013

Change the Weather History Date:

Friday, July 5, 2013

  Actual Average Record
Temperature  
Mean Temperature 74 °F 75 °F  
Max Temperature 87 °F 86 °F 110 °F (1911)
Min Temperature 60 °F 65 °F 48 °F (1972)
Degree Days  
Heating Degree Days 0 0  
Month to date heating degree days 0 0  
Since 1 June heating degree days 26 21  
Since 1 July heating degree days 0 0  
Cooling Degree Days 9 10  
Month to date cooling degree days 21 50  
Year to date cooling degree days 296 315  
Since 1 June cooling degree days 219 251  
Growing Degree Days 24 (Base 50)    
Moisture  
Dew Point 59 °F    
Average Humidity 60    
Maximum Humidity 84    
Minimum Humidity 36    
Precipitation  
Precipitation 0.00 in 0.16 in 1.76 in (1993)
Month to date precipitation T 0.80  
Year to date precipitation 26.14 18.42  
Sea Level Pressure  
Sea Level Pressure 29.98 in    
Wind  
Wind Speed 9 mph (South)    
Max Wind Speed 17 mph    
Max Gust Speed 22 mph    
Visibility 10 miles    
Events      
T = Trace of Precipitation, MM = Missing Value Source: NWS Daily Summary

Daily Weather History Graph

Daily Weather History Graph

Search for Another Location

Airport or City:

Trip Planner

Search our weather history database for the weather conditions in past years. The results will help you decide how hot, cold, wet, or windy it might be!

Date:

Astronomy

Jul. 05, 2013 Rise Set
Actual Time 5:43 AM CDT 8:45 PM CDT
Civil Twilight 5:10 AM CDT 9:18 PM CDT
Nautical Twilight 4:27 AM CDT 10:00 PM CDT
Astronomical Twilight 3:37 AM CDT 10:50 PM CDT
Moon 3:43 AM CDT (7/5) 6:40 PM CDT (7/5)
Length of Visible Light 16h 08m
Length of Day
15h 01m
Waning Crescent, 6% of the Moon is Illuminated
Jul 5
Waning Crescent
Jul 8
New
Jul 15
First Quarter
Jul 22
Full
Jul 29
Last Quarter

Hourly Weather History & Observations

Time (CDT) Temp. Heat Index Dew Point Humidity Pressure Visibility Wind Dir Wind Speed Gust Speed Precip Events Conditions
12:53 AM 69.1 °F - 57.9 °F 68% 29.99 in 10.0 mi South 6.9 mph - N/A   Clear
1:53 AM 66.0 °F - 59.0 °F 78% 29.99 in 10.0 mi South 6.9 mph - N/A   Clear
2:53 AM 64.9 °F - 59.0 °F 81% 29.98 in 10.0 mi South 8.1 mph - N/A   Clear
3:53 AM 64.0 °F - 57.9 °F 80% 29.98 in 10.0 mi South 5.8 mph - N/A   Clear
4:53 AM 62.1 °F - 57.9 °F 86% 29.99 in 10.0 mi SSE 4.6 mph - N/A   Clear
5:53 AM 62.1 °F - 57.9 °F 86% 30.01 in 10.0 mi South 6.9 mph - N/A   Clear
6:53 AM 64.9 °F - 59.0 °F 81% 30.01 in 10.0 mi South 8.1 mph - N/A   Clear
7:53 AM 68.0 °F - 60.1 °F 76% 30.01 in 10.0 mi South 10.4 mph - N/A   Clear
8:53 AM 73.0 °F - 61.0 °F 66% 30.01 in 10.0 mi South 11.5 mph - N/A   Clear
9:53 AM 75.9 °F - 61.0 °F 60% 30.02 in 10.0 mi South 9.2 mph - N/A   Clear
10:53 AM 80.1 °F 81.1 °F 61.0 °F 52% 30.01 in 10.0 mi South 10.4 mph - N/A   Clear
11:53 AM 82.9 °F 83.7 °F 62.1 °F 49% 29.99 in 10.0 mi South 12.7 mph - N/A   Clear
12:53 PM 84.0 °F 84.4 °F 61.0 °F 46% 29.99 in 10.0 mi South 13.8 mph - N/A   Clear
1:53 PM 86.0 °F 84.9 °F 57.0 °F 37% 29.98 in 10.0 mi South 12.7 mph 21.9 mph N/A   Clear
2:53 PM 87.1 °F 86.1 °F 57.9 °F 37% 29.97 in 10.0 mi SSW 12.7 mph - N/A   Clear
3:53 PM 86.0 °F 84.9 °F 57.0 °F 37% 29.96 in 10.0 mi SSW 10.4 mph 18.4 mph N/A   Partly Cloudy
4:53 PM 86.0 °F 85.0 °F 57.9 °F 38% 29.95 in 10.0 mi SSW 11.5 mph - N/A   Partly Cloudy
5:53 PM 84.9 °F 83.9 °F 57.0 °F 38% 29.94 in 10.0 mi South 11.5 mph - N/A   Clear
6:53 PM 82.0 °F 82.0 °F 57.9 °F 44% 29.94 in 10.0 mi South 9.2 mph - N/A   Clear
7:53 PM 81.0 °F 81.1 °F 57.9 °F 45% 29.94 in 10.0 mi South 6.9 mph - N/A   Clear
8:53 PM 73.0 °F - 59.0 °F 61% 29.94 in 10.0 mi SE 4.6 mph - N/A   Clear
9:53 PM 71.1 °F - 60.1 °F 68% 29.95 in 10.0 mi SE 6.9 mph - N/A   Clear
10:53 PM 73.9 °F - 62.1 °F 66% 29.96 in 10.0 mi SSE 11.5 mph - N/A   Clear
11:53 PM 72.0 °F - 61.0 °F 68% 29.97 in 10.0 mi SSE 9.2 mph - N/A   Clear